Regional Weather Roundup
Issued by NWS

Home | Current Version | Previous Version | Text Only | Print | Product List | Glossary Off
Versions: 1 2 3 4 5 6 7 8 9 10 11 12 13 14 15 16 17 18 19 20 21 22 23 24 25 26 27 28 29 30 31 32 33 34 35 36 37 38 39 40 41 42 43 44 45 46 47 48 49 50

000
ASUS45 KSLC 201210
RWRUT

UTAH REGIONAL WEATHER ROUNDUP
NATIONAL WEATHER SERVICE SALT LAKE CITY UT
500 AM MST THU NOV 20 2014

UTZ001>011-023>025-201300-

NORTHERN UTAH

CITY           SKY/WX    TMP DP  RH WIND       PRES   REMARKS
BRIGHAM CITY   PTCLDY    28  23  82 CALM      30.10S
HILL AFB       CLOUDY    32  21  64 E5        30.09R WCI  27
LOGAN          PTCLDY    24  21  88 CALM      30.10R
OGDEN          PTCLDY    31  22  69 CALM      30.09R
PROVO AIRPORT  PTCLDY    21  19  93 CALM      30.11R
SALT LAKE CITY PTCLDY    29  26  89 SE6       30.10S WCI  23
VERNAL         CLOUDY    28  15  58 CALM      30.10F
WENDOVER       CLOUDY    27  16  63 CALM      30.11S
HEBER CITY     PTCLDY    21  18  86 CALM      30.09F

$$

UTZ012>022-026-027-201300-

SOUTHERN/CENTRAL UTAH

CITY           SKY/WX    TMP DP  RH WIND       PRES   REMARKS
BLANDING       MOCLDY    26  16  64 CALM      30.19S
BRYCE CANYON   PTCLDY    19  10  68 W6        30.13S WCI  11
CEDAR CITY     MOCLDY    34  17  50 SE5       30.10S WCI  30
DELTA          CLOUDY    29  20  69 E5        30.09S WCI  24
MILFORD        CLOUDY    34  12  40 S8        30.08S WCI  27
MOAB/CYNLANDS  MOCLDY    24  10  55 CALM      30.12F
PRICE          PTCLDY    23   9  55 NE7       30.11F WCI  15
ST GEORGE      PTSUNNY   36   9  32 CALM      30.12F

$$

REGIONAL REPORTS     COLORADO/ARIZONA

CITY           SKY/WX    TMP DP  RH WIND       PRES   REMARKS
CRAIG, CO      PTCLDY    11   7  84 CALM      30.11S
GRAND JUNCTION PTCLDY    25  13  60 SE3       30.13F
RIFLE          MOCLDY    24  17  74 CALM      30.16F
MONTROSE       CLEAR     19  14  81 S6        30.16F WCI  11
CORTEZ         PTCLDY    22  17  81 CALM      30.13F
PAGE, AZ       NOT AVBL
GRAND CANYON   CLOUDY    25   2  37 CALM      30.15S
KINGMAN        CLEAR     33  10  38 CALM      30.09S
FLAGSTAFF      PTCLDY    21   6  52 CALM      30.15S

$$

REGIONAL REPORTS    NEVADA/IDAHO/WYOMING

CITY           SKY/WX    TMP DP  RH WIND       PRES   REMARKS
LAS VEGAS, NV  PTCLDY    44  15  31 S12       30.06S
ELY            PTCLDY    27  10  49 S9        30.12S WCI  18
ELKO           PTCLDY    32  28  85 E7        30.10S WCI  26
POCATELLO, ID  PTCLDY    20  18  92 W3        30.10R
BURLEY         MOCLDY    25  21  85 W5        30.08F WCI  19
EVANSTON, WY   MOCLDY    29  12  49 SW5       30.07F WCI  24
ROCK SPRINGS   CLOUDY    30  13  49 W13       30.05F WCI  20
KEMMERER       MOCLDY    30  12  47 W6        30.06F WCI  24

$$



USA.gov is the U.S. government's official web portal to all federal, state and local government web resources and services.